Regional Weather Roundup
Issued by NWS

Home | Current Version | Previous Version | Text Only | Print | Product List | Glossary On
Versions: 1 2 3 4 5 6 7 8 9 10 11 12 13 14 15 16 17 18 19 20 21 22 23 24 25 26 27 28 29 30 31 32 33 34 35 36 37 38 39 40 41 42 43 44 45 46 47 48 49 50
000
ASUS42 KTBW 311610
RWRFL
FLORIDA REGIONAL WEATHER ROUNDUP
NATIONAL WEATHER SERVICE TAMPA BAY RUSKIN FL
1100 AM EST SAT JAN 31 2015

NOTE: "FAIR" INDICATES FEW OR NO CLOUDS BELOW 12,000 FEET WITH NO
SIGNIFICANT WEATHER AND/OR OBSTRUCTIONS TO VISIBILITY.


FLZ001>010-012>015-112-114-115-311700-
PANHANDLE FLORIDA

CITY           SKY/WX    TMP DP  RH WIND       PRES   REMARKS
PENSACOLA      SUNNY     49  27  42 VRB6      30.36R
PENSACOLA NAS  MOSUNNY   51  34  52 E9        30.35R
MILTON NAS     SUNNY     50  25  37 SE6       30.36R
CRESTVIEW      SUNNY     51  27  39 VRB6      30.37R
DUKE FIELD     FAIR      52  24  34 VRB5      30.35S
VALPARAISO     MOSUNNY   51  26  37 E7        30.35R
MARY ESTHER    SUNNY     51  25  36 E10       30.35R
TRI COUNTY     FAIR      50  27  40 VRB5      30.38R
PANAMA CITY    FAIR      52  27  38 E10       30.33S
TYNDALL AFB    SUNNY     52  30  42 E9        30.35R
APALACHICOLA   SUNNY     56  36  47 E10       30.35R

STATION/POSITION SKY/WX   TEMP    WIND        PRES    WAVE   SWELL
                          AIR SEA DIR/SP/G            HT/PER HT/PER
                          (F)     (DEG/KT/KT) (MB)    (FT/S) (FT/S)
30.1N   87.6W              55 62   90/ 14/ 17 1026.7R   4/ 6
29.2N   88.2W              60 69  110/ 16/ 19 1026.5R   4/ 6
28.7N   86.0W              60 69  100/ 16/ 19 1026.3R   5/ 6
PANAMA CITY BEAC           49 59   90/  6/ 13 1027.2R
CAPE SAN BLAS    NOT AVBL
TOWER C                    53      90/ 16/ 18 1027.3R
28.5N   84.5W              58 67   90/ 16/ 19 1026.3R   5/ 6

$$
FLZ011-016>038-118-127-128-134-139-239-311700-
NORTH FLORIDA

CITY           SKY/WX    TMP DP  RH WIND       PRES   REMARKS
MARIANNA       SUNNY     49  27  42 E5        30.37R
TALLAHASSEE    MOSUNNY   53  28  38 E9        30.36S
PERRY          SUNNY     54  35  48 E7        30.37S
CROSS CITY       N/A     57  37  47 NE9       30.35R
LAKE CITY      FAIR      54  36  50 E8        30.36R
GAINESVILLE    SUNNY     58  40  51 NE14      30.34R
MAYPORT NAS    SUNNY     58  38  47 NE14      30.37R
JACKSONVILLE   MOSUNNY   57  37  47 E14       30.37R
JAX NAS        MOSUNNY   59  36  42 NE14      30.37R
JAX CRAIG      SUNNY     58  38  47 NE12G22   30.36R
JAX CECIL      SUNNY     57  37  47 NE15      30.36R
FERNANDINA BEA FAIR      61  39  44 NE14      30.37R
ST AUGUSTINE   SUNNY     59  43  55 NE16      30.36R

STATION/POSITION SKY/WX   TEMP    WIND        PRES    WAVE   SWELL
                          AIR SEA DIR/SP/G            HT/PER HT/PER
                          (F)     (DEG/KT/KT) (MB)    (FT/S) (FT/S)
SHELL POINT      NOT AVBL
KEATON BEACH               53      80/ 12/ 14 1028.0R
CEDAR KEY                  51      60/ 14/ 16 1026.9R
FERNANDINA                 54 55   50/  7/ 12 1028.2R
30.7N   81.3W                 56                N/A     4/ 5
MAYPORT                    54 57   70/ 14/ 15 1028.2R
31.4N   80.9W              49 54   50/ 14/ 16 1029.2R   5/ 6
ST AUGUSTINE               57      30/ 15/ 16 1028.1R

$$
FLZ040-043>046-052-053-057-058-063-144-311700-
INTERIOR CENTRAL FLORIDA

CITY           SKY/WX    TMP DP  RH WIND       PRES   REMARKS
OCALA          SUNNY     59  39  47 E12       30.32R
THE VILLAGES     N/A     61  45  55 NE8       30.22S
LEESBURG       SUNNY     62  44  51 NE9       30.32R
SANFORD        SUNNY     67  48  50 NE12      30.30R
ORLANDO EXEC   SUNNY     65  48  54 E14       30.29S
ORLANDO INTL   PTSUNNY   67  49  52 NE10      30.29R
KISSIMMEE      SUNNY     64  48  55 MISG      30.29S
WINTER HAVEN   SUNNY     65  47  52 NE13      30.30R
LAKELAND       MOSUNNY   63  46  55 NE10      30.30R
BARTOW         PTSUNNY   63  46  55 NE7       30.30R
OKEECHOBEE     SUNNY     68  52  56 NE8       30.27S

$$
FLZ041-047-054-059-064-141-147-311700-
EAST CENTRAL FLORIDA

CITY           SKY/WX    TMP DP  RH WIND       PRES   REMARKS
ORMOND BEACH   SUNNY     63  46  55 E12G17    30.32R
DAYTONA BEACH  PTSUNNY   66  47  50 NE15      30.32R
NEW SMYRNA BEA SUNNY     68  46  45 NE13G18   30.32R
JFK SPACE CTR  SUNNY     68  47  48 E14       30.29R
TITUSVILLE     MOSUNNY   66  46  48 E18       30.29R
CAPE CANAVERAL SUNNY     67  49  52 E12       30.28R
PATRICK AFB    SUNNY     67  51  55 NE13      30.28R
MELBOURNE      MOSUNNY   69  49  48 NE16      30.28R
VERO BEACH     MOSUNNY   70  49  47 NE14      30.27R
FT PIERCE      MOSUNNY   69  50  50 NE12G18   30.26R
STUART         MOSUNNY   68  48  49 NE14G25   30.28R

STATION/POSITION SKY/WX   TEMP    WIND        PRES    WAVE   SWELL
                          AIR SEA DIR/SP/G            HT/PER HT/PER
                          (F)     (DEG/KT/KT) (MB)    (FT/S) (FT/S)
28.5N   80.2W              64 71   40/ 16/ 17 1025.3R
28.9N   78.5W              62 73   20/ 16/ 19 1025.9R   6/ 8   3/ 8
TRIDENT PIER               67 62   50/ 11/ 14 1026.2R
28.4N   80.5W                 62                N/A     3/ 8
27.6N   80.2W                 66                N/A     4/ 8

$$
FLZ050-056-061-142-242-148-248-149-249-151-251-155-255-
160-260-311700-
WEST CENTRAL FLORIDA

CITY           SKY/WX    TMP DP  RH WIND       PRES   REMARKS
BROOKSVILLE    SUNNY     61  43  51 NE12G18   30.31S
CLEARWATER     SUNNY     59  45  59 NE8       30.29F
TAMPA INTL     PTSUNNY   63  43  48 NE9       30.30S
TAMPA EXEC     SUNNY     63  45  51 NE8       30.31R
MACDILL AFB    SUNNY     61  47  59 NE13      30.29S
ST PETERSBURG  SUNNY     58  46  64 E9        30.28S
SARASOTA       MOSUNNY   63  47  55 NE12      30.26F
VENICE         NOT AVBL

STATION/POSITION SKY/WX   TEMP    WIND        PRES    WAVE   SWELL
                          AIR SEA DIR/SP/G            HT/PER HT/PER
                          (F)     (DEG/KT/KT) (MB)    (FT/S) (FT/S)
CEDAR KEY                  51      60/ 14/ 16 1026.9R
28.5N   84.5W              58 67   90/ 16/ 19 1026.3R   5/ 6
27.3N   84.3W                 71                N/A     6/ 6
CLEARWATER BEACH           60 60   70/  5/ 11 1025.4F
MIDDLE TAMPA BAY           57      50/  8/  9 1025.9F
VENICE                     63 63   70/ 10/ 15 1024.7F

$$
FLZ066-069-070-075>078-162-262-165-265-311700-
SOUTHWEST FLORIDA AND KEYS

CITY           SKY/WX    TMP DP  RH WIND       PRES   REMARKS
PUNTA GORDA    SUNNY     66  50  56 NE13      30.28F
FT MYERS       SUNNY     67  50  54 E13       30.25S
SOUTHWEST INTL SUNNY     67  50  54 E14       30.26S
NAPLES         SUNNY     70  51  51 NE13      30.24S
MARCO ISLAND   SUNNY     68  52  56 NE12      30.24F
IMMOKALEE      SUNNY    N/A N/A N/A NE13      30.27R
MARATHON       SUNNY     69  58  67 NE13      30.21S
KEY WEST NAS   SUNNY     72  58  61 NE9       30.21S
KEY WEST INTL  SUNNY     70  58  65 NE13      30.22R

STATION/POSITION SKY/WX   TEMP    WIND        PRES    WAVE   SWELL
                          AIR SEA DIR/SP/G            HT/PER HT/PER
                          (F)     (DEG/KT/KT) (MB)    (FT/S) (FT/S)
VENICE                     63 63   70/ 10/ 15 1024.7F
NAPLES                     65      60/  8/ 12 1024.6F
26.0N   85.6W              66 72   80/ 16/ 17 1024.0R   5/ 7   2/11
DRY TORTUGAS               67      70/ 15/ 17 1023.0R
NW FL BAY                  64      40/ 11/ 12 1023.0R
SAND KEY                   67      50/ 15/ 17 1023.0R
SOMBRERO KEY               66      40/ 17/ 18 1023.1S
LONG KEY                   63 65   20/ 14/ 15 1023.6R
MOLASSES REEF              70 74   70/ 20/ 22 1022.8R

$$
FLZ067-068-071>074-168-172>174-311700-
SOUTHEAST FLORIDA

CITY           SKY/WX    TMP DP  RH WIND       PRES   REMARKS
W PALM BEACH   PTSUNNY   73  52  47 E16       30.24R
FT LAUDER-EXEC MOSUNNY   74  52  46 E16G24    30.24R
FT LAUDERDALE  PTSUNNY   71  54  54 NE16      30.23S
POMPANO BEACH  MOSUNNY   75  51  43 NE15      30.24R
PEMBROKE PINES MOSUNNY   72  51  47 E18       30.25R
OPA LOCKA      PTSUNNY   72  53  51 E14G22    30.24R
MIAMI          PTSUNNY   74  53  48 NE15G25   30.23S
WEST KENDALL   SUNNY     74  54  49 E15       30.23S
HOMESTEAD      SUNNY     73  54  52 NE17      30.22S

STATION/POSITION SKY/WX   TEMP    WIND        PRES    WAVE   SWELL
                          AIR SEA DIR/SP/G            HT/PER HT/PER
                          (F)     (DEG/KT/KT) (MB)    (FT/S) (FT/S)
PORT EVERGLADES            69      60/ 15/ 18 1023.7
VIRGINIA KEY               69 69   70/ 14/ 19 1023.9R
LAKE WORTH                 68 73   50/ 18/ 20 1024.0R
SETTLEMENT POINT           66      60/ 16/ 17 1025.1R

$$




USA.gov is the U.S. government's official web portal to all federal, state and local government web resources and services.